Simultaneous Nadir Overpasses (SNOs) Predictions

Prediction of SNOs between METOP-B and TERRA Satellite Orbit:

Table of predicted SNOs for the next 14.0 days since TLE Epoch: 6/8/2019
Index Date (METOP-B) Time (METOP-B) Lat,Lon (METOP-B) SZA (METOP-B ) Date (TERRA) Time (TERRA) Lat,Lon (TERRA) SZA (TERRA ) Distance(km) Time Diff (sec)
1 06/08/2019 05:14:14 -81.31, -31.37 118.56 06/08/2019 05:14:27 -81.30, -31.50 118.58 2.43 13
2 06/08/2019 06:04:53 81.31, 136.51 61.51 06/08/2019 06:03:52 81.32, 136.65 61.50 2.58 61
3 06/11/2019 00:48:37 -81.31, 34.96 118.82 06/11/2019 00:48:41 -81.30, 35.04 118.81 1.44 4
4 06/11/2019 01:39:16 81.31,-157.18 61.25 06/11/2019 01:38:07 81.31,-157.22 61.21 0.93 69
5 06/13/2019 19:32:19 81.30, -66.16 60.97 06/13/2019 19:33:28 81.31, -66.03 61.02 2.30 69
6 06/13/2019 20:22:59 -81.31, 101.67 118.97 06/13/2019 20:22:55 -81.31, 101.56 118.99 1.85 4
7 06/16/2019 15:06:40 81.31, 0.52 60.87 06/16/2019 15:07:41 81.31, 0.43 60.89 1.51 61
8 06/16/2019 15:57:21 -81.31, 167.97 119.12 06/16/2019 15:57:08 -81.31, 168.06 119.12 1.38 13
9 06/19/2019 10:41:03 81.30, 66.79 60.76 06/19/2019 10:41:55 81.31, 66.87 60.80 1.38 52




NCC Satellite Simultaneous Nadir Overpasses (SNOs) Prediction Service
